EW9741 Weather Reports


time (UTC)temp
C
wind
direction
speed
KPH
gust
KPH
rain 1hr
cm
rain 24hr
cm
rain mn
cm
humidity
%
barometer
mb
20260507151542 11 190 0.0 0.0 0.00 0.00 0.00 45 1014.4
20260507150039 11 190 0.0 0.0 0.00 0.00 0.00 44 1014.2
20260507144602 11 190 0.0 0.0 0.00 0.00 0.00 44 1014.3
20260507143036 10 190 0.0 14.5 0.00 0.00 0.00 49 1014.4
20260507141538 10 190 0.0 0.0 0.00 0.00 0.00 47 1014.4
20260507140033 10 190 0.0 6.4 0.00 0.00 0.00 50 1014.5
20260507134533 10 190 0.0 14.5 0.00 0.00 0.00 50 1014.4
20260507133036 10 190 0.0 0.0 0.00 0.00 0.00 50 1014.6
20260507131531 9 190 0.0 0.0 0.00 0.00 0.00 54 1014.5
20260507130110 9 190 1.6 14.5 0.00 0.00 0.00 54 1014.3
20260507124608 8 190 0.0 0.0 0.00 0.00 0.00 62 1014.4
20260507123057 8 190 0.0 0.0 0.00 0.00 0.00 67 1014.5
20260507121556 7 190 0.0 8.0 0.00 0.00 0.00 69 1014.5
20260507120056 7 190 0.0 0.0 0.00 0.00 0.00 71 1014.5
20260507114558 6 190 0.0 6.4 0.00 0.00 0.00 75 1014.4
20260507113024 6 190 0.0 0.0 0.00 0.00 0.00 79 1014.4
20260507111534 5 190 0.0 0.0 0.00 0.00 0.00 82 1014.2
20260507110018 5 190 0.0 0.0 0.00 0.00 0.00 84 1014.0
20260507104520 5 190 0.0 0.0 0.00 0.00 0.00 85 1014.0
20260507103015 5 190 0.0 0.0 0.00 0.00 0.00 85 1013.9
20260507101515 5 190 0.0 0.0 0.00 0.00 0.00 86 1013.9
20260507100016 5 190 0.0 0.0 0.00 0.00 0.00 84 1013.8
20260507094511 5 190 0.0 0.0 0.00 0.00 0.00 85 1013.8
20260507093014 5 190 0.0 0.0 0.00 0.00 0.00 86 1013.7
20260507091510 5 190 0.0 0.0 0.00 0.00 0.00 87 1013.6
20260507090039 5 190 0.0 0.0 0.00 0.00 0.00 87 1013.6
20260507084544 5 190 0.0 0.0 0.00 0.05 0.00 88 1013.5
20260507083037 5 190 0.0 0.0 0.00 0.05 0.00 88 1013.4
20260507081532 6 190 0.0 0.0 0.00 0.05 0.00 85 1013.3
20260507080032 6 190 0.0 0.0 0.00 0.05 0.00 84 1013.4
20260507074530 6 190 0.0 0.0 0.00 0.25 0.00 83 1013.3
20260507073103 7 190 0.0 0.0 0.00 0.25 0.00 83 1013.4
20260507071601 7 190 0.0 0.0 0.00 0.25 0.00 83 1013.3
20260507064556 7 190 0.0 0.0 0.00 0.43 0.00 82 1013.4
20260507063055 7 190 0.0 0.0 0.00 0.43 0.00 82 1013.6
20260507061555 7 190 0.0 0.0 0.00 0.43 0.00 82 1013.5
20260507060058 7 190 0.0 0.0 0.00 0.43 0.00 82 1013.4
20260507054523 7 190 0.0 0.0 0.00 0.79 0.00 81 1013.5
20260507053023 7 190 0.0 0.0 0.00 0.79 0.00 81 1013.7
20260507051554 7 190 0.0 0.0 0.00 0.79 0.00 81 1013.5
20260507050053 7 190 0.0 0.0 0.00 0.79 0.00 83 1013.6
20260507044558 6 190 0.0 0.0 0.00 0.94 0.00 85 1013.7
20260507043047 7 190 0.0 0.0 0.00 0.94 0.00 83 1013.7
20260507041548 7 190 0.0 0.0 0.00 0.94 0.00 81 1013.6
20260507040043 7 190 0.0 0.0 0.00 0.94 0.00 81 1013.6
20260507034544 7 190 0.0 0.0 0.00 0.97 0.00 82 1013.6
20260507033039 7 190 0.0 0.0 0.00 0.97 0.00 78 1013.6
20260507031539 7 190 0.0 0.0 0.00 0.97 0.00 78 1013.6
20260507030035 8 190 0.0 0.0 0.00 0.97 0.00 78 1013.7
20260507024535 8 190 0.0 0.0 0.00 1.04 0.00 81 1013.7
20260507023031 9 190 0.0 0.0 0.00 1.04 0.00 78 1013.6
20260507021531 8 190 0.0 0.0 0.00 1.04 0.00 78 1013.6
20260507020035 9 190 0.0 0.0 0.00 1.04 0.00 76 1013.5
20260507014520 10 190 0.0 0.0 0.00 1.27 0.00 73 1013.5
20260507013015 10 190 0.0 0.0 0.00 1.27 0.00 68 1013.2
20260507011511 11 190 0.0 0.0 0.00 1.27 0.00 66 1012.9
20260507010008 11 190 0.0 0.0 0.00 1.27 0.00 61 1013.0
20260507004538 12 190 0.0 0.0 0.00 1.32 0.00 60 1012.9
20260507003034 12 190 0.0 0.0 0.00 1.32 0.00 58 1012.8
20260507001538 12 190 0.0 0.0 0.00 1.32 0.00 56 1012.7
20260507000026 13 190 0.0 0.0 0.00 1.32 0.00 55 1012.6
20260506234525 13 190 0.0 0.0 0.00 1.35 0.00 55 1012.2
20260506233024 13 190 0.0 0.0 0.00 1.35 0.00 54 1012.2
20260506231552 13 190 0.0 0.0 0.00 1.35 0.00 53 1011.9
20260506230054 13 190 0.0 0.0 0.00 1.35 0.00 53 1011.9
20260506224600 13 190 0.0 0.0 0.00 1.35 0.00 52 1012.0
20260506223045 13 190 0.0 0.0 0.00 1.35 0.00 53 1012.3
20260506221543 13 190 0.0 0.0 0.00 1.35 0.00 54 1012.3
20260506220041 13 190 0.0 0.0 0.00 1.35 0.00 53 1012.5
20260506214508 13 190 0.0 0.0 0.00 1.55 1.35 52 1012.5
20260506213005 13 190 0.0 0.0 0.00 1.55 1.35 52 1012.3
20260506211556 14 190 0.0 0.0 0.00 1.55 1.35 52 1012.1
20260506210055 14 190 0.0 9.7 0.00 1.55 1.35 50 1012.0
20260506204556 14 190 0.0 0.0 0.00 2.01 1.35 49 1011.9
20260506203047 13 190 0.0 0.0 0.00 2.01 1.35 50 1012.0
20260506201537 13 190 0.0 0.0 0.00 2.01 1.35 50 1012.0
20260506200034 14 190 0.0 0.0 0.00 2.01 1.35 52 1012.1
20260506194529 15 190 0.0 0.0 0.00 2.03 1.35 51 1012.0
20260506193024 15 190 0.0 0.0 0.00 2.03 1.35 51 1011.8
20260506191518 15 190 0.0 0.0 0.00 2.03 1.35 51 1011.5
20260506190013 15 190 0.0 0.0 0.00 2.03 1.35 49 1011.6
20260506184509 15 190 0.0 4.8 0.00 2.03 1.35 47 1011.5
20260506183007 15 44 0.0 8.0 0.00 2.03 1.35 48 1011.4
20260506181534 14 13 0.0 0.0 0.00 2.03 1.35 50 1011.5
20260506180029 14 323 0.0 0.0 0.00 2.03 1.35 52 1011.8
20260506174519 13 82 0.0 0.0 0.00 2.03 1.35 55 1011.9
20260506173015 13 333 0.0 0.0 0.00 2.03 1.35 54 1012.0
20260506171513 13 297 0.0 0.0 0.00 2.03 1.35 56 1012.1
20260506170007 13 46 0.0 0.0 0.00 2.03 1.35 54 1012.2
20260506164503 13 77 0.0 0.0 0.00 2.03 1.35 56 1012.3
20260506163029 12 46 0.0 0.0 0.00 2.03 1.35 60 1012.1
20260506161524 12 72 0.0 0.0 0.00 2.03 1.35 59 1012.3
20260506160017 11 58 0.0 19.3 0.00 2.03 1.35 62 1012.1
20260506154513 11 6 0.0 0.0 0.00 2.03 1.35 63 1011.9
20260506153009 11 58 0.0 0.0 0.00 2.03 1.35 65 1012.2